Regional Weather Roundup
Issued by NWS Goodland, KS

Home | Current Version | Previous Version | Graphics & Text | Print | Product List | Glossary On
Versions: 1 2 3 4 5 6 7 8 9 10 11 12 13 14 15 16 17 18 19 20 21 22 23 24 25 26 27 28 29 30 31 32 33 34 35 36 37 38 39 40 41 42 43 44 45 46 47 48 49 50
000
ASUS43 KGLD 270959
RWRGLD

GOODLAND FORECAST AREA HOURLY WEATHER ROUNDUP
NATIONAL WEATHER SERVICE GOODLAND KS
300 AM MST SAT DEC 27 2014

...OFFICIAL OBSERVATIONS...

CITY           SKY/WX    TMP DP  RH WIND       PRES   REMARKS
GOODLAND KS    CLEAR      3   0  87 NW7       30.13F
HILL CITY KS   CLEAR     11   7  84 NW7       30.20F
IMPERIAL NEB   CLEAR     10   6  84 W9        30.15S
MCCOOK NEB     CLEAR      9   6  88 NW12      30.19R WCI  -6
AKRON CO       CLEAR      4   3  96 W15       30.08F WCI -14
BURLINGTON CO  PTCLDY     2  -2  83 NW12      30.11F WCI -15
LIMON CO       PTCLDY     1  -2  87 W10       30.07S WCI -15
$$

...UNOFFICIAL OBSERVATIONS...

CITY           SKY/WX    TMP DP  RH WIND       PRES   REMARKS
COLBY KS       CLEAR      9   9 100 W8        30.17S
NORTON KS      CLEAR      9   3  78 W7        30.19R
SHARON SPRINGS   N/A      5   2  88 CALM        N/A
KIT CARSON CO    N/A      6   2  84 MISG        N/A
$$


USA.gov is the U.S. government's official web portal to all federal, state and local government web resources and services.